WISESAT-3

operational
NORAD ID: 64536 Int'l Des: 2025-135 Owner: WISEK Country: CH
LEOCIRCULARRETROGRADESSO

About WISESAT-3

Description loading...

Live Position

Loading 3D Globe...

Upcoming Passes

Altitude History

Altitude vs Time

uPlot chart will show altitude changes over time

Two-Line Element Set

1 64536U 25135J 25312.29275457 .00004873 00000-0 24217-3 0 9995
2 64536 97.4520 64.4957 0003254 221.7125 138.3861 15.18110096 21287
Epoch: Nov 8, 2025 • Age: 69 hours

Current Status

Altitude 535.5 km
Velocity 7.59 km/s
Sub-Earth Point -63.38°S, 33.4°W
Launch Date Jun 23, 2025
Age 0.3 years
Type communications

Technical Details

Classification Payload
Mass 4.00 kg
Dry Mass 4.00 kg
Total Mass 4.00 kg
Length 0.30 m
Diameter 0.10 m
Span 0.30 m
Shape Box + 2 pan
Manufacturer FOSSA
Bus Type Cubesat 3U
Phase Status In Orbit
Owner/State WISEK/CH

Large Constellations

Loading constellations...